TimeEDT,TemperatureF,Dew PointF,Humidity,Sea Level PressureIn,VisibilityMPH,Wind Direction,Wind SpeedMPH,Gust SpeedMPH,PrecipitationIn,Events,Conditions,WindDirDegrees,DateUTC
12:56 AM,23.0,12.9,65,30.36,10.0,Calm,Calm,-,N/A,,Clear,0,2014-03-24 04:56:00
1:56 AM,21.0,12.9,71,30.36,10.0,NNW,4.6,-,N/A,,Clear,340,2014-03-24 05:56:00
2:56 AM,21.0,12.9,71,30.36,10.0,North,5.8,-,N/A,,Clear,10,2014-03-24 06:56:00
3:56 AM,21.0,12.0,68,30.36,10.0,North,4.6,-,N/A,,Clear,360,2014-03-24 07:56:00
4:56 AM,19.9,12.9,74,30.36,10.0,NW,3.5,-,N/A,,Mostly Cloudy,310,2014-03-24 08:56:00
5:56 AM,21.0,12.9,71,30.37,10.0,WNW,4.6,-,N/A,,Overcast,300,2014-03-24 09:56:00
6:56 AM,19.9,12.0,71,30.37,10.0,WNW,4.6,-,N/A,,Overcast,300,2014-03-24 10:56:00
7:56 AM,19.9,10.0,65,30.37,10.0,NW,4.6,-,N/A,,Scattered Clouds,320,2014-03-24 11:56:00
8:56 AM,21.9,10.0,60,30.38,10.0,NNW,6.9,-,N/A,,Scattered Clouds,340,2014-03-24 12:56:00
9:56 AM,25.0,9.0,51,30.38,10.0,North,5.8,-,N/A,,Partly Cloudy,350,2014-03-24 13:56:00
10:56 AM,28.0,8.1,43,30.37,10.0,NNE,5.8,-,N/A,,Scattered Clouds,20,2014-03-24 14:56:00
11:56 AM,28.0,7.0,41,30.35,10.0,Calm,Calm,-,N/A,,Partly Cloudy,0,2014-03-24 15:56:00
12:56 PM,30.9,7.0,37,30.32,10.0,SW,5.8,-,N/A,,Partly Cloudy,220,2014-03-24 16:56:00
1:56 PM,32.0,8.1,37,30.30,10.0,West,5.8,-,N/A,,Scattered Clouds,260,2014-03-24 17:56:00
2:56 PM,35.1,8.1,33,30.25,10.0,NW,4.6,-,N/A,,Scattered Clouds,310,2014-03-24 18:56:00
3:56 PM,36.0,9.0,33,30.22,10.0,NW,8.1,-,N/A,,Mostly Cloudy,310,2014-03-24 19:56:00
4:56 PM,37.9,10.0,32,30.20,10.0,WNW,12.7,16.1,N/A,,Mostly Cloudy,290,2014-03-24 20:56:00
5:56 PM,37.0,10.9,34,30.19,10.0,WSW,10.4,-,N/A,,Mostly Cloudy,250,2014-03-24 21:56:00
6:56 PM,36.0,12.0,37,30.18,10.0,West,10.4,-,N/A,,Overcast,270,2014-03-24 22:56:00
7:56 PM,34.0,12.0,40,30.17,10.0,WNW,5.8,-,N/A,,Mostly Cloudy,290,2014-03-24 23:56:00
8:56 PM,30.9,14.0,50,30.17,10.0,NNW,4.6,-,N/A,,Mostly Cloudy,340,2014-03-25 00:56:00
9:56 PM,30.0,14.0,51,30.17,10.0,NNW,4.6,-,N/A,,Mostly Cloudy,340,2014-03-25 01:56:00
10:56 PM,30.0,14.0,51,30.17,10.0,North,4.6,-,N/A,,Overcast,360,2014-03-25 02:56:00
11:56 PM,28.9,15.1,56,30.14,10.0,North,5.8,-,N/A,,Overcast,10,2014-03-25 03:56:00